Regional Weather Roundup
Issued by NWS

Home | Current Version | Previous Version | Text Only | Print | Product List | Glossary Off
Versions: 1 2 3 4 5 6 7 8 9 10 11 12 13 14 15 16 17 18 19 20 21 22 23 24 25 26 27 28 29 30 31 32 33 34 35 36 37 38 39 40 41 42 43 44 45 46 47 48 49 50

535
ASUS45 KCYS 251210
RWRWY

WYOMING REGIONAL WEATHER ROUNDUP
NATIONAL WEATHER SERVICE CHEYENNE WY
600 AM MDT WED MAY 25 2016

NOTE:  "FAIR" INDICATES FEW OR NO CLOUDS BELOW 12,000 FEET
WITH NO SIGNIFICANT WEATHER AND/OR OBSTRUCTIONS TO VISIBILITY.

WYZ001-251300-
YELLOWSTONE NATIONAL PARK

CITY           SKY/WX    TMP DP  RH WIND       PRES   REMARKS
LK YELLOWSTONE   N/A     33  31  92 CALM      30.02R
6HR MIN TEMP:  32; 6HR MAX TEMP:  34; 6HR PCP:  0.25;

W YELLOWSTONE  NOT AVBL

$$
WYZ002>013-054>058-071-098>099-251300-
NORTHERN WYOMING

CITY           SKY/WX    TMP DP  RH WIND       PRES   REMARKS
JACKSON        CLOUDY    39  39 100 CALM      30.00R
CODY           CLOUDY    45  43  93 CALM      29.92S
GREYBULL       CLOUDY    51  49  92 E6        29.90R
6HR MIN TEMP:  51; 6HR MAX TEMP:  53; 6HR PCP:  0.02;

WORLAND        CLOUDY    48  45  89 E3        29.90S
6HR MIN TEMP:  47; 6HR MAX TEMP:  49; 6HR PCP: TRACE;

SHERIDAN       CLOUDY    48  45  89 CALM      29.91S
6HR MIN TEMP:  48; 6HR MAX TEMP:  50; 6HR PCP:  0.01;

BUFFALO        CLOUDY    46  42  86 N5        29.94R
6HR MIN TEMP:  45; 6HR MAX TEMP:  47;

GILLETTE         N/A     48  46  93 NW5       29.89S
6HR MIN TEMP:  42; 6HR MAX TEMP:  48;

HULETT         CLOUDY    46  46 100 W5        29.90R
NEWCASTLE      CLOUDY    46  46 100 SE6       29.91R

$$
WYZ014>020-022>026-101>103-251300-
CENTRAL WYOMING

CITY           SKY/WX    TMP DP  RH WIND       PRES   REMARKS
BIG PINEY      CLOUDY    39  37  92 CALM      30.03R
6HR MIN TEMP:  35; 6HR MAX TEMP:  39; 6HR PCP:  0.01;

PINEDALE       DRIZZLE   36  36 100 SE3       30.04R
DUBOIS         CLOUDY    37  32  81 NW9       29.97R WCI  31
LANDER         FAIR      41  33  73 SW9       29.92S
6HR MIN TEMP:  41; 6HR MAX TEMP:  48;

RIVERTON       MOCLDY    40  37  89 N3        29.94R
6HR MIN TEMP:  40; 6HR MAX TEMP:  48;

CASPER         FAIR      42  34  73 W7        29.94R
6HR MIN TEMP:  35; 6HR MAX TEMP:  48;

DOUGLAS          N/A    N/A N/A N/A MISG      29.94R

$$
WYZ021-027>030-104>119-251300-
SOUTHERN WYOMING

CITY           SKY/WX    TMP DP  RH WIND       PRES   REMARKS
EVANSTON       MOCLDY    37  32  82 SW9       30.04R WCI  30
6HR MIN TEMP:  34; 6HR MAX TEMP:  39;

KEMMERER         N/A     34  34 100 CALM      30.03S
FORT BRIDGER   MOSUNNY   39  37  93 SW12      30.06S WCI  32
ROCK SPRINGS   CLOUDY    37  34  89 NE3       30.03R
6HR MIN TEMP:  37; 6HR MAX TEMP:  40;

DIXON          FAIR      38  35  87 CALM      30.06S
RAWLINS        FAIR      39  32  76 SW10      30.01S WCI  32
6HR MIN TEMP:  39; 6HR MAX TEMP:  45;

SARATOGA       FAIR      36  36 100 MISG      30.03S
LARAMIE        FAIR      36  32  85 SW7       30.02S WCI  30
6HR MIN TEMP:  32; 6HR MAX TEMP:  44;

CHEYENNE       FAIR      44  34  67 W12       29.99R
6HR MIN TEMP:  43; 6HR MAX TEMP:  53;

TORRINGTON     FAIR      40  39  97 NE3       29.91F
6HR MIN TEMP:  39; 6HR MAX TEMP:  53;

PINE BLUFFS    FAIR      37  37 100 W5        29.98R WCI  34

$$




USA.gov is the U.S. government's official web portal to all federal, state and local government web resources and services.